TimeEST,TemperatureF,Dew PointF,Humidity,Sea Level PressureIn,VisibilityMPH,Wind Direction,Wind SpeedMPH,Gust SpeedMPH,PrecipitationIn,Events,Conditions,WindDirDegrees,DateUTC
12:23 AM,33.8,30.2,87,30.26,10.0,WNW,3.5,-,N/A,,Mostly Cloudy,300,2012-11-22 05:23:00
12:51 AM,32.0,30.0,92,30.28,10.0,NNW,4.6,-,N/A,,Overcast,330,2012-11-22 05:51:00
1:24 AM,33.8,30.2,87,30.27,10.0,NW,4.6,-,N/A,,Mostly Cloudy,320,2012-11-22 06:24:00
1:51 AM,32.9,30.0,89,30.29,10.0,NW,4.6,-,N/A,,Mostly Cloudy,320,2012-11-22 06:51:00
2:51 AM,32.9,30.0,89,30.28,10.0,Calm,Calm,-,N/A,,Overcast,0,2012-11-22 07:51:00
3:51 AM,32.9,31.1,93,30.28,10.0,NW,3.5,-,N/A,,Overcast,320,2012-11-22 08:51:00
4:43 AM,33.8,30.2,87,30.26,10.0,Calm,Calm,-,N/A,,Scattered Clouds,0,2012-11-22 09:43:00
4:51 AM,32.9,30.0,89,30.28,9.0,NW,3.5,-,N/A,,Mostly Cloudy,310,2012-11-22 09:51:00
5:13 AM,33.8,30.2,87,30.26,10.0,NW,3.5,-,N/A,,Scattered Clouds,320,2012-11-22 10:13:00
5:51 AM,31.1,29.1,92,30.28,9.0,NW,3.5,-,N/A,,Clear,320,2012-11-22 10:51:00
6:51 AM,29.1,27.1,92,30.30,10.0,Calm,Calm,-,N/A,,Partly Cloudy,0,2012-11-22 11:51:00
7:06 AM,28.4,26.6,93,30.29,9.0,Calm,Calm,-,N/A,,Mostly Cloudy,0,2012-11-22 12:06:00
7:17 AM,28.4,26.6,93,30.29,7.0,Calm,Calm,-,N/A,,Scattered Clouds,0,2012-11-22 12:17:00
7:40 AM,30.2,26.6,86,30.30,10.0,Calm,Calm,-,N/A,,Mostly Cloudy,0,2012-11-22 12:40:00
7:51 AM,31.1,28.0,88,30.32,9.0,Calm,Calm,-,N/A,,Mostly Cloudy,0,2012-11-22 12:51:00
8:43 AM,33.8,30.2,87,30.29,10.0,WNW,3.5,-,N/A,,Scattered Clouds,300,2012-11-22 13:43:00
8:51 AM,34.9,30.0,82,30.31,10.0,WNW,3.5,-,N/A,,Partly Cloudy,300,2012-11-22 13:51:00
9:51 AM,39.9,32.0,73,30.30,10.0,Calm,Calm,-,N/A,,Clear,0,2012-11-22 14:51:00
10:51 AM,46.9,34.9,63,30.27,10.0,Calm,Calm,-,N/A,,Clear,0,2012-11-22 15:51:00
11:51 AM,50.9,37.9,61,30.25,10.0,Calm,Calm,-,N/A,,Clear,0,2012-11-22 16:51:00
12:51 PM,52.9,37.9,57,30.23,10.0,Calm,Calm,-,N/A,,Clear,0,2012-11-22 17:51:00
1:51 PM,54.9,36.9,51,30.21,10.0,Calm,Calm,-,N/A,,Clear,0,2012-11-22 18:51:00
2:51 PM,54.9,36.0,49,30.20,10.0,Calm,Calm,-,N/A,,Clear,0,2012-11-22 19:51:00
3:51 PM,48.9,36.9,63,30.20,10.0,Calm,Calm,-,N/A,,Clear,0,2012-11-22 20:51:00
4:51 PM,43.0,36.0,76,30.20,10.0,Calm,Calm,-,N/A,,Clear,0,2012-11-22 21:51:00
5:51 PM,39.9,34.9,82,30.20,10.0,Calm,Calm,-,N/A,,Clear,0,2012-11-22 22:51:00
6:51 PM,37.9,32.9,82,30.20,10.0,Calm,Calm,-,N/A,,Clear,0,2012-11-22 23:51:00
7:51 PM,36.0,32.0,86,30.20,10.0,Calm,Calm,-,N/A,,Clear,0,2012-11-23 00:51:00
8:51 PM,34.9,32.0,89,30.19,10.0,Calm,Calm,-,N/A,,Clear,0,2012-11-23 01:51:00
9:51 PM,32.9,29.1,86,30.17,10.0,Calm,Calm,-,N/A,,Clear,0,2012-11-23 02:51:00
10:51 PM,31.1,28.0,88,30.16,10.0,Calm,Calm,-,N/A,,Clear,0,2012-11-23 03:51:00
11:51 PM,30.0,27.1,89,30.14,10.0,Calm,Calm,-,N/A,,Clear,0,2012-11-23 04:51:00